TimeCDT,TemperatureF,Dew PointF,Humidity,Sea Level PressureIn,VisibilityMPH,Wind Direction,Wind SpeedMPH,Gust SpeedMPH,PrecipitationIn,Events,Conditions,WindDirDegrees,DateUTC
12:38 AM,73.4,66.2,78,30.01,10.0,SSE,8.1,-,N/A,,Overcast,160,2013-06-10 05:38:00
12:43 AM,73.4,66.2,78,30.01,10.0,SSE,6.9,-,N/A,,Mostly Cloudy,160,2013-06-10 05:43:00
12:48 AM,73.4,66.2,78,30.01,10.0,South,8.1,-,N/A,,Scattered Clouds,170,2013-06-10 05:48:00
12:58 AM,72.3,66.0,80,30.02,10.0,SSE,8.1,-,N/A,,Mostly Cloudy,160,2013-06-10 05:58:00
1:13 AM,73.4,66.2,78,30.01,10.0,South,6.9,-,N/A,,Mostly Cloudy,170,2013-06-10 06:13:00
1:18 AM,73.4,66.2,78,30.00,10.0,South,8.1,-,N/A,,Overcast,170,2013-06-10 06:18:00
1:58 AM,73.0,66.6,80,30.01,10.0,South,6.9,-,N/A,,Overcast,170,2013-06-10 06:58:00
2:58 AM,73.4,67.3,81,30.00,10.0,South,6.9,-,N/A,,Overcast,180,2013-06-10 07:58:00
3:58 AM,73.8,67.3,80,30.00,10.0,Variable,4.6,-,N/A,,Overcast,0,2013-06-10 08:58:00
4:58 AM,73.4,67.3,81,30.01,10.0,South,4.6,-,N/A,,Overcast,180,2013-06-10 09:58:00
5:58 AM,73.4,68.0,83,30.03,10.0,South,4.6,-,N/A,,Overcast,190,2013-06-10 10:58:00
6:03 AM,73.4,68.0,83,30.02,10.0,South,3.5,-,N/A,,Overcast,170,2013-06-10 11:03:00
6:33 AM,73.4,68.0,83,30.02,10.0,South,6.9,-,N/A,,Mostly Cloudy,190,2013-06-10 11:33:00
6:38 AM,73.4,68.0,83,30.01,10.0,South,3.5,-,N/A,,Scattered Clouds,190,2013-06-10 11:38:00
6:53 AM,75.2,68.0,78,30.02,10.0,South,4.6,-,N/A,,Mostly Cloudy,190,2013-06-10 11:53:00
6:58 AM,74.8,68.9,82,30.03,10.0,South,5.8,-,N/A,,Mostly Cloudy,180,2013-06-10 11:58:00
7:18 AM,75.2,69.8,83,30.01,10.0,South,6.9,-,N/A,,Overcast,190,2013-06-10 12:18:00
7:38 AM,77.0,69.8,78,30.02,10.0,SSW,5.8,-,N/A,,Overcast,200,2013-06-10 12:38:00
7:58 AM,78.4,68.9,72,30.03,10.0,SSW,9.2,-,N/A,,Mostly Cloudy,210,2013-06-10 12:58:00
8:18 AM,78.8,69.8,74,30.01,10.0,SSW,6.9,-,N/A,,Mostly Cloudy,200,2013-06-10 13:18:00
8:38 AM,80.6,68.0,65,30.02,10.0,SSW,8.1,-,N/A,,Mostly Cloudy,210,2013-06-10 13:38:00
8:58 AM,80.4,68.5,67,30.03,10.0,Variable,5.8,-,N/A,,Mostly Cloudy,0,2013-06-10 13:58:00
9:28 AM,80.6,68.0,65,30.02,10.0,South,6.9,-,N/A,,Overcast,190,2013-06-10 14:28:00
9:43 AM,80.6,69.8,70,30.02,10.0,SSW,5.8,-,N/A,,Overcast,210,2013-06-10 14:43:00
9:44 AM,80.6,69.8,70,30.02,10.0,SSW,6.9,-,N/A,Rain,Light Rain,200,2013-06-10 14:44:00
9:52 AM,80.6,68.0,65,30.02,10.0,SSW,6.9,-,N/A,,Overcast,200,2013-06-10 14:52:00
9:58 AM,80.1,68.9,69,30.03,10.0,SSW,5.8,-,0.00,,Overcast,200,2013-06-10 14:58:00
10:03 AM,80.6,68.0,65,30.03,10.0,SW,5.8,-,N/A,,Mostly Cloudy,220,2013-06-10 15:03:00
10:07 AM,80.6,69.8,70,30.03,10.0,SW,5.8,-,N/A,Rain,Light Rain,230,2013-06-10 15:07:00
10:27 AM,73.4,66.2,78,30.05,4.0,West,5.8,18.4,N/A,Rain-Thunderstorm,Light Thunderstorms and Rain,280,2013-06-10 15:27:00
10:29 AM,73.4,66.2,78,30.05,0.2,West,8.1,18.4,N/A,Rain-Thunderstorm,Heavy Thunderstorms and Rain,260,2013-06-10 15:29:00
10:32 AM,73.4,66.2,78,30.06,0.8,West,9.2,-,N/A,Rain-Thunderstorm,Heavy Thunderstorms and Rain,270,2013-06-10 15:32:00
10:37 AM,71.6,66.2,83,30.05,0.5,WNW,5.8,-,N/A,Rain-Thunderstorm,Heavy Thunderstorms and Rain,290,2013-06-10 15:37:00
10:42 AM,71.6,66.2,83,30.05,3.0,Variable,5.8,-,N/A,Rain-Thunderstorm,Light Thunderstorms and Rain,0,2013-06-10 15:42:00
10:56 AM,71.6,66.2,83,30.06,8.0,Variable,5.8,-,N/A,Rain-Thunderstorm,Light Rain,0,2013-06-10 15:56:00
10:58 AM,72.1,67.1,84,30.07,10.0,West,3.5,-,0.40,Rain-Thunderstorm,Light Rain,280,2013-06-10 15:58:00
11:00 AM,71.6,68.0,88,30.06,10.0,West,4.6,-,N/A,Rain,Light Rain,260,2013-06-10 16:00:00
11:58 AM,72.1,67.5,85,30.06,10.0,SSW,5.8,-,0.03,Rain,Light Rain,210,2013-06-10 16:58:00
12:37 PM,73.4,68.0,83,30.05,10.0,SSW,5.8,-,N/A,,Scattered Clouds,200,2013-06-10 17:37:00
12:47 PM,73.4,69.8,88,30.05,10.0,SSW,8.1,-,N/A,Rain,Light Rain,200,2013-06-10 17:47:00
12:58 PM,74.3,68.9,83,30.06,10.0,SSW,8.1,-,0.01,Rain,Light Rain,200,2013-06-10 17:58:00
12:59 PM,75.2,68.0,78,30.05,10.0,SSW,8.1,-,N/A,,Mostly Cloudy,200,2013-06-10 17:59:00
1:58 PM,77.9,68.4,72,30.04,10.0,Variable,5.8,-,0.00,,Scattered Clouds,0,2013-06-10 18:58:00
2:58 PM,80.4,67.8,65,30.03,10.0,SSW,8.1,-,N/A,,Mostly Cloudy,200,2013-06-10 19:58:00
3:58 PM,83.7,68.4,60,30.01,10.0,SW,8.1,-,N/A,,Scattered Clouds,230,2013-06-10 20:58:00
4:43 PM,84.2,68.0,58,29.99,10.0,SW,4.6,-,N/A,,Mostly Cloudy,230,2013-06-10 21:43:00
4:48 PM,84.2,68.0,58,29.99,10.0,SW,6.9,-,N/A,,Mostly Cloudy,230,2013-06-10 21:48:00
4:53 PM,84.2,68.0,58,29.99,10.0,SW,8.1,-,N/A,,Mostly Cloudy,220,2013-06-10 21:53:00
4:58 PM,84.6,68.2,58,30.00,10.0,SW,8.1,-,N/A,,Mostly Cloudy,220,2013-06-10 21:58:00
5:08 PM,82.4,68.0,62,29.98,10.0,SW,6.9,-,N/A,,Mostly Cloudy,230,2013-06-10 22:08:00
5:58 PM,84.6,69.1,60,29.99,10.0,SW,5.8,-,N/A,,Scattered Clouds,220,2013-06-10 22:58:00
6:58 PM,83.5,69.4,62,29.99,10.0,SSW,5.8,-,N/A,,Scattered Clouds,210,2013-06-10 23:58:00
7:58 PM,79.7,69.4,71,29.99,10.0,South,5.8,-,N/A,,Clear,190,2013-06-11 00:58:00
8:58 PM,78.1,70.3,77,30.01,10.0,South,4.6,-,N/A,,Clear,190,2013-06-11 01:58:00
9:58 PM,76.5,70.3,81,30.03,10.0,SSW,2.3,-,N/A,,Clear,200,2013-06-11 02:58:00
10:58 PM,74.3,69.8,86,30.05,10.0,SSE,1.2,-,N/A,,Clear,160,2013-06-11 03:58:00
11:58 PM,72.3,68.9,89,30.05,10.0,South,3.5,-,N/A,,Clear,180,2013-06-11 04:58:00